Simultaneous Nadir Overpasses (SNOs) Predictions

Prediction of SNOs between AQUA and GOES-15 Satellite Orbit:

Table of predicted SNOs for the next 14.0 days since TLE Epoch: 9/25/2020
Index Date Time (AQUA) AQUA Lat,Lon GOES-15 Lat,Lon Distance(km) Time Diff (sec)
1 09/25/2020 22:16:30 -0.24,-130.18 0.12,-128.35 207.36 80
2 09/27/2020 22:04:18 0.37,-127.22 0.13,-128.37 130.67 80
3 09/28/2020 10:25:33 0.73,-132.38 -0.13,-128.42 450.76 80
4 09/29/2020 21:52:06 0.99,-124.27 0.13,-128.39 468.73 80
5 09/30/2020 10:13:22 0.06,-129.43 -0.13,-128.44 112.70 80
6 10/02/2020 10:01:10 -0.56,-126.48 -0.13,-128.45 225.23 80
7 10/02/2020 22:22:34 -0.55,-131.67 0.13,-128.42 368.77 80
8 10/04/2020 22:10:22 0.08,-128.71 0.13,-128.43 31.48 80
9 10/06/2020 21:58:10 0.71,-125.75 0.13,-128.44 305.09 80
10 10/07/2020 10:19:24 0.41,-130.90 -0.13,-128.47 277.45 80
11 10/09/2020 10:07:12 -0.22,-127.95 -0.14,-128.47 58.28 80
